Wind_Speed
48 48 48 49 49 48 48 47 47 46 45 44 44 44 43 41 41 42 40 38 37 37 37 39 41 42 43 44 46 46 45 43 41 38 34 35 34 30 29 31 33 34 36 37 37 37 38 37 36 36 36 34 32 29 25 22 20 18 16 15 15 18 20 21 22 22 21 22 24 24 24 24 24 24 25 25 25 25 24 24 24 25 26 27 28
48 48 48 49 49 48 47 46 45 45 44 44 44 43 42 41 42 42 40 38 38 37 37 39 41 42 43 44 45 43 40 40 39 35 34 36 35 32 32 34 35 37 38 38 38 37 38 38 37 36 34 32 29 27 23 20 18 16 15 15 16 18 20 21 23 22 20 22 24 24 24 24 24 24 25 25 26 25 25 25 25 26 27 27 28
49 48 49 49 48 46 44 44 44 44 44 44 44 43 42 42 43 42 40 39 38 38 38 39 41 43 43 44 43 39 36 38 38 37 37 39 38 36 35 36 38 38 38 38 37 37 38 39 38 35 32 29 27 24 21 19 17 15 14 15 16 18 20 22 23 21 20 22 24 24 24 24 25 25 26 26 26 26 25 25 26 26 26 27 26
49 49 48 47 45 43 43 43 43 43 44 44 43 43 43 43 43 41 40 39 39 38 38 40 41 42 42 43 40 35 36 39 40 41 41 40 39 38 38 39 39 38 36 36 36 37 38 39 37 34 30 27 24 22 19 18 16 14 14 15 16 18 20 22 22 20 20 22 24 25 25 25 25 26 26 27 27 27 26 25 25 25 25 25 26
49 48 46 44 43 42 42 42 43 43 43 43 43 43 43 44 42 40 40 40 39 38 39 40 42 41 41 42 36 34 39 41 41 42 41 39 38 39 40 40 39 37 35 35 36 37 39 38 36 32 28 24 22 20 17 16 14 13 13 14 16 19 21 22 21 20 21 22 24 25 26 26 26 27 27 28 28 27 26 25 24 24 24 25 25
49 47 45 43 42 42 42 42 42 43 43 43 43 43 44 43 41 40 40 40 39 40 40 41 43 41 41 40 35 37 42 41 41 41 39 38 38 39 40 39 37 35 34 35 36 37 38 37 33 29 25 22 21 18 16 15 13 13 14 15 17 19 21 21 21 21 21 22 24 26 27 27 27 27 28 29 29 28 26 24 23 23 23 24 25
48 46 44 43 42 42 41 42 42 43 43 43 44 44 43 42 41 41 42 41 41 41 41 43 43 41 41 38 36 40 42 40 41 40 39 39 40 40 40 38 35 34 33 35 36 37 36 34 31 27 24 21 20 17 14 13 13 14 15 16 18 20 21 21 22 22 23 23 24 27 27 27 28 28 29 30 30 29 26 24 22 22 23 24 25
47 45 43 42 42 41 41 41 42 43 44 44 44 44 43 42 42 43 43 43 42 42 43 44 43 42 41 38 38 41 41 41 41 40 41 42 42 41 41 37 33 33 33 33 35 35 34 31 28 26 24 21 19 16 13 12 13 15 16 18 19 20 21 22 23 24 25 24 24 27 28 28 28 29 30 31 31 30 27 23 22 22 23 23 24
44 43 42 41 41 40 40 41 43 43 44 44 44 43 43 43 43 42 42 42 42 42 44 44 43 42 41 40 39 39 40 42 44 43 44 44 42 40 38 34 32 32 32 32 33 33 32 29 27 25 23 21 19 16 14 13 15 17 18 19 20 21 22 22 23 25 25 25 25 27 28 29 29 30 30 31 32 30 27 23 22 22 23 23 24
42 42 41 41 41 41 41 42 43 43 43 43 43 43 43 42 41 41 42 41 42 43 44 43 42 42 41 39 37 38 41 44 45 46 45 43 38 35 33 31 31 31 30 30 31 31 30 27 26 25 23 21 19 17 15 15 16 18 19 20 21 22 22 23 24 25 26 26 25 28 29 29 29 30 31 32 32 30 27 23 22 22 23 23 24
42 42 41 41 41 41 41 42 43 43 43 43 43 42 42 41 41 42 41 41 42 42 42 41 41 40 38 35 36 39 43 45 46 46 44 39 34 31 30 29 30 30 29 29 30 30 29 27 26 25 23 22 20 18 16 16 17 18 19 20 22 23 23 24 24 25 27 26 26 28 29 29 29 29 31 32 32 30 26 23 22 22 22 23 23
42 42 42 42 41 42 42 43 43 43 43 43 44 43 42 42 42 41 40 40 40 38 37 38 37 35 33 34 38 42 45 46 46 45 42 37 32 29 29 29 30 29 29 29 30 29 29 28 27 26 24 22 20 19 17 17 18 18 19 21 22 23 24 24 25 26 27 27 27 29 30 30 30 30 31 32 31 29 26 23 22 22 22 23 23
43 43 42 42 42 42 43 43 44 43 43 44 44 44 43 41 39 38 38 38 37 35 35 36 35 33 33 37 41 45 46 46 46 45 40 34 30 28 30 30 31 30 29 29 30 29 29 29 28 27 25 22 20 19 18 17 17 18 19 21 22 24 25 25 25 25 27 28 28 29 31 31 30 30 31 32 31 28 25 23 22 22 22 23 22
42 42 42 42 43 43 44 44 44 43 43 44 44 44 42 39 37 37 38 38 36 35 36 36 35 35 37 41 44 46 46 46 46 43 38 31 27 28 31 32 32 31 29 29 30 31 30 30 29 27 25 22 21 20 19 18 18 18 19 21 23 24 25 26 25 25 27 29 28 30 32 31 31 31 32 33 31 27 24 22 22 22 22 22 21
41 42 42 43 44 44 44 44 43 43 43 44 45 44 43 40 39 40 39 38 37 36 37 37 37 38 40 43 45 46 46 46 45 41 35 28 27 30 34 35 35 33 30 30 31 32 32 30 29 27 24 22 21 21 20 20 19 19 20 22 24 25 25 25 25 25 27 28 29 32 33 31 31 31 32 32 30 27 24 22 22 22 22 21 21
43 43 44 44 45 45 45 44 43 43 44 45 45 45 43 42 41 41 40 39 38 37 38 39 39 41 43 45 45 46 47 47 45 40 32 27 30 34 36 36 35 33 31 30 32 33 33 31 30 28 25 22 21 22 22 22 22 21 22 23 24 25 25 25 25 25 27 28 31 33 33 31 31 32 33 32 30 26 23 22 22 22 22 21 22
45 45 46 46 46 45 45 44 44 44 45 46 46 45 44 42 42 42 42 41 40 39 40 41 43 44 44 44 45 46 47 46 43 38 32 29 32 36 36 36 35 34 32 31 32 33 33 32 30 29 27 24 22 22 22 23 23 23 23 24 25 25 24 24 23 24 26 29 32 33 33 31 31 32 32 31 29 26 23 22 22 22 21 21 22
47 46 46 46 46 45 45 45 45 45 46 46 46 46 45 44 43 42 41 41 41 41 41 42 43 43 43 43 45 47 47 45 42 38 34 33 36 39 39 37 37 37 35 33 33 32 32 32 31 29 28 26 24 23 23 24 24 24 25 25 25 25 24 23 22 23 27 30 32 33 33 31 30 31 32 31 28 25 23 22 21 21 21 22 23
46 46 45 45 45 45 45 45 45 45 46 46 46 46 46 46 45 43 41 40 40 41 41 41 41 41 42 44 46 47 46 44 42 37 36 37 41 43 41 39 38 38 37 35 33 33 32 32 31 30 29 28 26 24 24 24 25 25 26 26 27 25 23 22 22 25 29 31 32 33 32 30 30 31 31 29 27 24 22 21 20 20 21 22 23
44 45 45 45 45 45 45 45 45 45 46 46 47 47 47 46 45 43 41 39 39 39 39 39 40 41 42 44 46 46 45 45 42 37 37 41 43 42 41 40 39 38 38 36 34 33 32 32 32 31 30 28 26 25 25 25 25 25 26 28 28 26 23 23 25 28 30 31 33 32 30 29 29 31 30 27 25 23 21 20 19 20 21 22 22
44 45 45 45 45 45 45 45 45 45 46 47 47 47 46 46 45 43 41 39 38 39 39 40 41 43 44 46 46 45 45 45 41 38 41 42 41 40 40 40 39 39 38 37 35 33 32 32 32 31 30 29 27 26 26 27 27 27 28 28 29 27 25 25 28 30 31 32 32 30 28 28 29 29 27 25 23 21 19 18 18 20 21 22 22
44 44 45 45 45 44 44 44 45 45 46 47 46 45 45 44 43 42 41 40 40 40 41 42 43 45 46 46 45 45 46 45 41 41 43 42 40 40 41 41 40 39 37 37 35 34 33 33 32 32 31 31 29 29 29 29 28 28 29 29 28 27 27 28 28 29 30 31 31 28 26 26 27 25 24 23 21 19 17 16 17 19 20 21 21
44 44 44 44 44 44 44 44 45 45 46 46 44 43 43 43 42 41 41 40 41 41 42 44 46 47 46 45 44 44 45 44 42 43 45 43 41 42 43 43 41 39 37 36 35 34 34 33 33 33 33 32 31 31 31 31 30 28 28 29 29 28 29 28 28 29 29 29 27 24 23 24 23 22 21 21 18 15 14 14 15 17 18 19 20
43 43 44 44 45 45 44 44 45 45 45 44 43 42 43 43 42 41 41 41 42 43 44 46 47 46 45 44 43 44 44 44 44 46 46 45 44 44 45 44 43 40 36 34 33 33 34 34 34 35 35 34 33 32 31 31 30 28 28 29 30 29 29 28 29 29 29 26 23 21 21 21 21 20 20 19 15 12 12 12 14 15 16 17 18
43 43 44 45 46 45 45 44 44 43 42 42 42 42 42 42 42 41 41 42 43 44 45 47 47 45 44 43 43 43 44 44 45 47 47 46 46 46 46 45 43 40 36 33 32 32 34 34 34 34 35 35 34 33 31 30 29 27 27 29 30 30 30 30 30 30 28 24 20 19 19 20 20 19 19 17 13 11 11 12 13 14 15 16 17
43 44 45 45 46 45 43 43 42 41 40 40 41 42 42 42 42 42 42 44 45 45 46 47 46 44 42 42 43 43 44 45 47 47 47 46 46 47 46 45 43 40 36 33 32 32 33 34 35 35 35 35 34 33 32 31 30 29 28 29 30 29 31 32 30 29 27 22 18 18 18 18 19 19 18 17 14 12 12 12 13 14 15 15 16
44 44 44 44 44 43 42 42 42 41 41 41 41 42 43 44 44 45 45 46 46 46 46 45 43 42 42 43 44 45 45 46 47 47 46 45 45 45 45 44 41 38 35 33 32 32 32 34 35 35 35 35 35 35 35 34 32 31 30 29 29 30 31 31 29 28 27 22 19 18 18 18 19 18 18 17 16 14 13 13 14 15 15 15 14
44 44 44 44 43 42 42 43 43 44 44 44 44 45 45 45 46 46 47 46 45 45 44 43 43 43 44 44 45 46 46 46 47 46 45 44 44 44 43 41 38 37 36 34 33 33 34 34 35 35 35 36 36 36 37 36 35 34 32 30 29 29 30 29 28 28 27 23 20 19 18 18 18 19 18 18 17 16 15 14 14 15 16 15 14
45 45 44 44 44 44 43 44 45 45 45 46 46 47 47 46 46 45 45 44 44 43 43 43 44 45 45 45 46 46 46 46 46 45 45 45 45 45 42 38 37 38 39 38 37 36 35 36 37 36 35 35 35 36 37 36 36 35 34 33 31 29 28 26 25 27 28 25 22 20 18 18 18 19 19 18 17 17 16 15 15 16 16 16 15
45 45 45 45 46 45 44 44 45 45 46 47 46 46 46 45 44 43 43 43 43 44 44 44 44 45 45 46 46 46 45 45 45 45 45 45 46 44 41 38 39 41 43 43 41 38 37 36 37 37 36 35 34 35 35 36 36 36 35 34 32 29 26 24 23 25 27 26 23 21 20 18 19 19 19 18 17 16 16 16 16 16 17 17 16
46 46 46 46 46 46 46 45 45 46 47 46 45 44 44 44 43 42 41 42 43 45 46 46 45 45 46 46 46 45 44 44 45 45 46 46 45 44 41 40 42 44 46 45 42 39 38 37 37 38 37 36 34 33 33 34 35 35 34 33 32 29 26 25 24 24 25 25 23 22 21 20 19 20 19 18 17 15 15 15 16 17 18 19 18
47 47 47 47 47 47 47 47 47 47 46 44 43 43 44 43 43 43 43 44 45 46 46 46 46 46 46 46 45 45 44 45 45 46 46 46 45 44 43 43 44 46 47 44 40 39 38 38 37 37 37 36 35 34 32 32 33 34 33 32 31 31 30 28 26 25 25 26 24 22 21 21 20 21 20 19 17 15 14 14 15 17 18 18 18
48 48 48 47 47 47 48 48 48 47 45 43 42 42 43 44 44 46 47 47 47 45 45 45 46 46 46 46 45 44 45 45 46 47 47 47 46 45 45 44 45 46 45 42 40 39 38 37 37 37 37 37 37 36 35 34 33 33 33 32 32 33 34 31 28 27 27 28 27 25 22 21 21 22 21 20 19 15 13 13 15 17 17 18 18
48 48 48 48 48 48 48 49 48 47 46 44 43 43 43 44 44 45 45 44 44 44 44 44 45 45 45 45 45 44 45 46 47 48 48 47 46 46 46 45 44 44 43 42 40 39 38 38 37 37 38 38 38 38 38 37 35 34 33 34 34 34 34 33 31 29 28 29 29 28 24 21 21 22 23 21 20 17 14 15 16 17 18 18 18
48 48 48 49 49 49 49 50 49 48 47 46 45 45 45 44 42 40 39 40 41 42 44 44 44 45 45 44 44 45 46 47 48 48 47 47 47 47 45 44 43 43 43 41 40 39 39 38 37 37 38 39 39 38 38 37 36 35 34 34 35 35 35 35 33 31 30 30 30 30 28 24 21 22 23 22 20 18 17 17 18 18 18 18 17
49 49 49 50 50 50 51 51 51 51 50 49 49 48 48 46 44 41 40 40 42 43 43 43 44 44 44 43 44 45 47 48 48 47 47 47 47 46 45 43 42 42 43 42 41 40 38 37 36 36 37 37 37 37 36 34 33 33 32 33 34 35 35 35 35 35 33 31 32 34 33 29 24 22 24 24 22 20 19 19 19 19 18 17 16
49 49 49 50 51 51 52 52 53 53 53 52 52 51 51 50 48 46 44 44 45 44 42 42 43 44 44 44 44 46 48 48 47 47 48 48 47 46 44 43 42 43 44 44 41 38 37 35 33 33 34 35 36 36 36 36 34 32 31 31 33 35 35 34 34 34 33 33 34 36 36 32 26 23 25 25 24 22 20 20 20 20 19 17 16
51 51 51 52 53 53 53 53 55 55 54 54 53 53 52 51 49 48 47 47 45 43 41 42 43 44 45 45 46 47 48 47 47 47 48 48 47 45 43 43 43 46 46 43 40 37 35 33 32 32 32 33 35 35 36 37 37 36 33 32 32 34 35 33 32 32 32 33 34 34 33 31 28 25 26 26 26 24 22 21 21 21 19 17 15
54 54 55 54 52 51 52 53 53 53 53 53 53 53 52 51 50 49 48 47 46 44 43 43 44 46 47 48 48 49 48 47 47 47 46 46 44 43 42 44 47 48 45 42 40 37 33 32 32 32 32 32 31 33 34 35 36 36 36 35 33 33 35 36 36 35 33 33 33 32 31 30 29 28 28 28 27 26 24 23 22 21 20 18 17
55 55 56 54 52 51 51 51 52 52 53 53 54 54 54 53 53 52 50 49 48 47 47 47 48 49 50 50 50 50 48 47 47 47 47 47 46 45 46 48 50 48 44 42 41 37 34 33 31 31 32 31 29 30 32 32 33 33 33 34 34 33 34 37 40 40 38 38 37 36 35 33 32 31 31 31 30 28 27 26 23 21 21 20 19
56 56 56 57 57 55 52 51 52 53 54 55 55 56 56 56 55 55 54 53 53 52 52 52 52 51 51 51 51 52 52 52 52 52 52 52 51 50 50 51 51 47 43 41 39 38 37 35 32 31 32 32 30 30 31 31 31 31 31 32 33 33 34 37 40 42 41 40 40 40 39 36 35 35 34 33 33 32 30 29 26 23 22 22 22
57 57 56 56 56 56 55 55 56 56 55 55 55 55 56 57 58 58 58 57 57 57 57 57 56 56 55 56 56 57 57 58 58 57 57 56 56 55 54 53 51 48 44 41 39 39 39 35 33 33 33 34 33 32 31 31 31 31 32 32 32 32 33 36 38 40 41 39 37 38 38 36 36 38 36 33 34 35 33 31 29 26 24 23 24
57 57 56 55 56 57 58 58 58 58 58 57 57 57 58 59 60 61 61 61 62 62 61 61 61 61 61 61 61 62 62 62 61 61 60 60 59 57 55 53 51 48 44 41 40 41 41 37 34 34 35 35 35 34 34 34 34 33 33 33 33 32 32 34 35 37 39 40 39 37 38 37 37 38 37 34 34 36 34 32 31 28 26 25 25
60 59 59 60 62 62 62 62 62 61 61 61 61 61 62 62 63 64 64 65 66 66 66 65 65 65 65 65 65 65 64 63 63 62 62 61 59 57 54 52 50 47 44 42 42 42 42 40 39 38 36 36 37 37 38 38 37 36 35 35 35 35 34 33 32 33 35 37 39 39 38 38 38 39 38 37 37 37 36 35 34 32 29 27 27
63 63 63 64 65 66 66 66 66 65 65 65 65 65 65 65 65 66 66 67 68 68 68 68 68 68 68 68 68 67 66 65 63 62 61 60 58 55 53 51 49 47 45 43 42 43 44 43 42 42 39 38 38 38 39 40 39 38 37 37 38 39 38 35 32 32 33 34 37 38 38 38 37 38 38 39 38 37 37 37 37 35 33 31 29
66 66 66 66 67 67 68 68 68 68 67 67 67 67 67 67 66 66 67 68 68 68 68 68 67 67 67 67 66 66 65 65 63 62 61 59 56 54 52 50 48 47 46 45 43 44 44 45 45 44 42 40 39 39 39 39 38 38 38 38 40 41 40 38 35 34 34 34 35 36 37 37 36 36 37 38 38 37 38 38 37 37 36 35 32
68 67 67 67 67 68 68 68 68 68 68 68 68 68 67 67 66 66 67 67 67 66 66 65 64 64 64 64 64 63 63 62 61 60 58 56 54 52 51 49 48 47 47 46 45 45 46 47 47 46 44 42 41 40 40 38 37 37 37 37 39 41 42 41 39 38 37 35 36 37 37 37 36 35 35 36 37 38 38 39 38 37 37 37 35
66 66 66 66 66 66 67 67 67 68 68 68 67 67 66 65 65 64 64 63 63 62 61 59 59 58 59 59 59 58 59 58 58 56 55 54 52 51 50 49 48 48 48 47 47 48 48 48 47 46 45 44 43 42 41 39 37 37 37 37 38 40 43 44 44 41 40 38 37 37 39 40 38 36 35 35 36 38 39 39 38 37 38 38 37
63 62 63 63 63 64 65 65 65 66 66 66 66 65 65 64 62 61 60 59 58 56 55 54 54 55 55 55 55 55 55 54 54 53 52 51 51 51 50 50 49 49 49 49 49 49 50 49 48 47 47 46 45 44 43 41 39 38 38 38 38 39 41 44 46 44 42 42 40 38 39 41 40 39 37 35 36 39 41 41 39 37 38 40 39
60 59 60 61 61 61 62 63 63 63 64 64 64 63 63 61 59 57 56 55 54 54 53 53 54 54 54 53 53 53 52 52 51 51 50 49 50 50 50 50 50 50 50 50 51 51 50 50 49 48 48 48 47 46 45 44 42 40 40 39 40 40 40 41 44 45 44 45 45 43 41 40 40 41 39 37 38 39 40 40 39 39 40 40 40
58 57 58 59 59 59 60 61 61 62 62 62 62 61 60 59 58 56 55 54 54 54 54 54 54 52 51 51 51 51 51 50 50 50 50 49 49 49 50 50 50 51 52 52 52 52 51 51 50 49 49 49 49 49 48 46 44 42 41 40 41 42 42 41 42 44 45 47 49 49 46 43 41 42 41 40 40 39 39 38 38 41 43 40 40
Wind_Direction
286 287 288 289 290 290 291 291 292 293 295 297 298 297 295 294 297 300 299 298 300 304 306 312 315 315 318 319 321 322 322 321 320 321 323 325 326 324 323 324 323 324 324 323 320 317 314 310 307 305 304 304 302 301 300 296 292 289 287 289 297 305 310 310 309 311 314 321 325 323 320 320 321 322 321 321 320 315 308 301 294 290 289 289 289
286 287 289 289 289 290 290 289 290 292 294 296 297 295 293 293 296 298 297 297 299 303 306 311 313 315 317 319 320 321 323 326 325 323 323 324 324 321 319 321 321 321 323 323 320 318 315 312 309 307 305 303 302 301 299 294 289 286 286 290 299 307 310 308 308 310 312 320 325 323 321 320 321 322 323 323 321 316 309 302 296 293 292 292 293
286 288 289 289 289 288 287 288 289 292 294 296 296 294 292 292 295 296 295 296 299 302 305 310 312 314 317 318 319 320 323 328 328 324 322 321 320 317 315 317 320 319 320 321 320 319 316 313 310 308 306 304 302 302 298 292 286 282 284 290 301 308 309 308 309 309 310 318 323 322 321 320 320 322 324 324 322 318 311 303 298 297 296 296 296
287 288 289 288 286 285 285 287 289 292 294 296 295 292 290 291 293 294 295 296 298 301 305 309 311 313 315 317 317 319 322 325 326 324 320 318 318 317 314 315 318 320 320 320 320 319 316 313 311 309 307 305 304 303 299 291 284 280 283 291 303 308 309 310 311 310 310 317 322 322 321 320 320 321 324 325 323 320 314 305 299 298 298 298 298
287 287 286 285 283 283 285 287 289 292 294 295 293 291 289 290 291 292 295 296 298 301 304 307 310 312 314 316 315 317 321 322 325 325 322 320 320 319 317 316 318 321 321 320 320 319 316 313 311 310 308 307 306 305 300 291 283 279 283 292 302 307 310 312 313 312 312 316 320 322 321 320 320 321 323 325 325 322 316 308 301 299 298 298 298
286 285 283 282 282 283 284 287 290 292 294 294 292 290 289 290 290 292 295 296 298 301 304 307 309 311 313 314 312 317 321 322 325 327 326 325 325 323 321 318 319 322 322 322 321 319 316 313 312 310 309 307 307 305 299 290 283 280 284 293 301 307 311 312 313 313 313 314 318 321 321 320 319 320 322 325 326 323 317 309 302 299 298 299 299
284 283 281 281 282 283 284 287 290 292 293 292 290 289 289 289 288 292 295 296 298 300 303 306 308 309 312 313 312 318 321 322 326 328 327 326 326 326 325 322 321 322 323 323 322 319 316 314 313 311 309 307 306 304 297 288 284 284 287 294 301 307 310 311 312 313 313 312 316 320 321 320 319 319 321 324 326 324 318 309 302 299 299 300 299
281 281 281 281 282 283 285 288 290 291 292 291 290 289 288 288 289 293 295 297 298 299 302 307 307 307 311 312 312 317 320 324 327 327 326 324 323 322 323 323 322 323 323 325 323 319 317 315 314 312 309 305 304 301 293 286 285 287 290 296 301 308 310 311 312 313 313 311 314 320 321 320 319 319 321 323 325 324 318 309 302 300 300 299 298
279 278 279 280 282 284 285 287 289 291 291 290 289 288 288 288 291 294 296 298 297 298 303 306 306 306 308 309 311 316 321 324 327 327 325 325 324 321 322 323 322 323 324 327 325 321 318 315 314 312 309 305 302 297 290 285 285 289 293 298 303 308 310 312 314 314 314 311 312 319 321 321 320 319 320 321 324 324 318 310 303 301 300 299 298
276 277 278 280 281 283 285 287 289 289 289 288 287 287 288 289 290 294 297 296 296 299 303 305 305 305 307 308 311 317 321 323 326 327 326 326 326 323 323 322 321 323 326 327 326 323 319 316 315 312 309 305 301 296 290 287 289 292 296 300 304 307 310 313 315 316 316 311 309 316 320 320 319 318 319 320 322 323 319 311 304 301 300 298 298
276 278 279 281 281 283 285 287 287 287 286 285 285 286 288 289 290 294 296 294 296 301 304 305 305 306 307 308 313 318 320 322 325 327 326 327 325 323 323 322 322 325 326 326 327 324 321 317 315 313 308 305 301 295 291 291 293 296 299 302 305 307 309 312 314 316 317 312 309 313 318 319 318 317 317 319 321 323 320 311 304 302 300 298 299
277 279 280 281 282 284 286 286 286 284 284 284 284 286 287 289 291 294 294 294 298 302 304 306 308 307 306 308 313 317 319 322 325 327 326 325 322 321 322 321 322 325 325 325 324 323 321 317 315 315 310 304 300 294 291 291 294 298 302 305 308 309 310 311 312 316 317 313 309 312 317 318 316 315 315 317 321 323 319 311 305 303 300 299 301
278 279 280 281 283 285 285 285 284 283 283 283 284 286 287 290 292 294 294 296 298 300 303 306 307 307 306 309 313 315 318 321 326 327 325 322 320 322 324 324 324 324 324 322 321 319 317 315 314 315 311 304 299 293 288 288 292 298 304 308 311 311 311 312 313 315 316 312 309 313 318 317 315 313 314 317 321 322 318 311 306 303 301 301 304
278 279 280 282 284 284 284 283 282 281 282 283 284 286 287 288 290 293 295 296 296 298 300 302 305 305 306 308 311 313 317 321 325 326 323 320 320 324 326 326 324 323 321 318 317 315 313 312 312 313 310 304 299 293 287 285 289 295 303 310 313 312 311 312 314 315 314 312 311 315 317 315 313 312 313 317 321 322 317 310 306 305 304 305 308
277 278 280 282 283 283 282 281 279 280 281 282 284 285 286 286 287 290 293 295 296 298 298 300 303 304 306 308 310 313 317 321 324 323 320 317 318 321 324 324 323 320 317 314 313 312 310 309 309 310 308 303 300 296 290 286 287 292 300 308 313 312 312 313 316 315 313 312 314 316 315 313 311 311 313 318 322 321 316 309 307 306 306 307 311
277 278 280 281 281 281 280 278 277 278 279 281 283 284 286 286 286 287 289 292 296 299 298 299 301 303 306 307 310 314 318 320 322 320 315 314 317 321 324 324 322 318 314 310 308 308 307 306 305 306 304 299 297 296 293 289 287 289 295 304 309 311 313 315 316 314 312 314 316 315 313 311 310 310 314 320 323 321 315 309 307 308 308 309 313
276 277 279 279 279 278 277 276 276 277 279 280 282 284 285 285 285 286 287 289 293 295 296 297 299 302 304 306 310 314 317 318 319 316 309 309 315 321 324 323 323 320 315 310 307 305 302 302 302 303 302 297 294 295 293 291 289 290 294 299 304 309 312 315 314 312 312 314 315 315 312 310 309 310 315 321 323 320 314 310 309 310 310 311 315
275 276 276 276 275 274 274 275 276 277 278 280 281 283 284 285 286 286 287 288 290 292 293 295 297 300 303 307 310 313 315 315 316 313 306 304 311 318 320 320 321 321 317 311 307 303 299 297 298 299 300 297 294 295 294 292 291 293 295 296 300 305 309 311 309 307 310 313 315 314 311 309 309 311 317 322 323 319 313 310 312 312 311 313 316
273 273 272 272 271 272 273 274 275 276 278 280 281 282 283 284 285 286 287 289 290 291 293 294 297 300 304 308 311 312 312 313 314 311 307 306 309 314 317 319 320 320 317 312 307 302 296 293 294 296 298 296 294 295 296 294 294 297 297 297 298 301 304 305 303 305 310 314 315 314 311 309 310 313 319 322 321 317 312 313 314 313 313 315 317
269 269 269 269 270 272 273 274 275 276 277 279 280 282 282 283 284 286 287 289 291 293 293 294 298 302 306 309 310 311 309 310 311 309 309 309 310 312 315 318 319 319 317 312 307 301 294 290 291 293 295 294 292 292 295 295 296 298 298 297 297 297 300 300 301 306 311 314 316 314 311 310 311 316 320 321 319 315 313 315 315 314 315 317 319
266 267 268 269 270 272 273 274 274 275 276 278 279 280 281 282 283 285 287 290 292 294 295 296 300 304 307 308 308 307 306 308 308 307 311 312 311 313 315 318 319 319 317 313 307 299 291 287 288 290 291 292 290 290 294 297 297 298 298 296 294 293 297 299 303 308 311 314 315 314 312 312 315 319 320 320 318 315 314 316 315 316 319 321 322
265 266 267 269 270 271 272 273 274 275 275 277 279 279 280 281 283 285 288 290 292 294 296 298 301 304 305 304 303 303 305 307 307 307 312 313 314 315 316 318 319 318 316 313 307 298 288 284 285 287 288 288 289 290 293 297 297 298 297 294 291 291 297 300 304 307 310 313 313 312 313 316 319 321 322 321 320 316 315 316 317 321 325 327 327
265 266 268 269 270 271 272 273 274 275 275 277 279 279 280 281 283 285 287 288 291 293 295 297 299 300 300 300 299 300 303 305 305 308 311 312 313 314 316 317 318 317 315 311 306 297 287 283 284 285 286 287 288 290 292 293 293 294 293 290 288 291 296 299 301 304 307 310 310 310 315 319 322 324 323 322 322 320 318 320 323 328 332 333 333
265 267 269 270 271 271 272 273 275 275 275 276 278 279 279 280 281 283 285 287 289 291 292 294 296 297 297 297 297 299 302 304 305 308 310 310 310 313 315 316 317 317 314 309 303 294 285 282 284 285 286 287 289 291 292 291 290 290 289 287 288 291 294 295 298 300 303 306 306 309 315 320 323 325 324 323 322 323 324 326 329 333 337 338 338
266 268 269 270 271 272 272 273 275 275 276 277 278 278 279 279 280 282 285 286 287 288 290 292 294 294 294 295 296 299 302 303 304 307 308 308 309 311 314 316 317 317 314 309 302 293 283 279 282 285 287 289 291 292 292 291 290 288 286 285 287 289 291 293 295 297 299 301 302 306 315 321 324 326 324 320 319 323 326 329 332 336 340 340 341
267 268 269 270 270 271 270 272 274 276 278 279 278 278 279 280 281 282 285 286 286 286 289 292 292 292 293 294 296 299 302 303 303 305 306 307 310 312 314 316 317 317 314 310 303 296 287 279 279 285 290 292 293 292 290 290 290 287 284 282 284 287 290 292 292 294 295 295 297 303 312 319 324 326 323 317 313 317 322 326 330 335 340 342 342
266 267 269 269 270 270 270 272 275 277 279 280 279 279 280 281 282 283 285 287 286 285 288 291 291 291 293 294 296 299 301 301 302 303 305 307 310 313 314 316 317 318 315 310 304 297 291 284 279 283 290 294 294 291 289 289 288 286 283 279 280 284 287 289 289 290 291 290 292 299 306 313 320 324 322 314 308 310 316 321 326 331 337 341 341
265 266 268 269 270 270 270 273 276 277 278 279 280 281 281 282 283 284 285 286 286 286 288 289 290 291 292 294 296 298 300 300 300 302 304 306 309 311 312 313 315 317 316 312 306 299 293 288 283 284 289 293 293 290 288 287 285 285 284 280 280 282 283 284 285 287 287 285 288 294 299 305 313 320 320 313 307 306 309 315 319 325 332 337 338
265 265 267 269 270 270 272 273 274 275 277 279 280 281 282 282 283 283 284 285 285 287 288 289 290 291 292 294 296 297 298 298 299 300 302 305 308 309 308 308 310 314 314 312 308 303 296 290 285 284 287 290 289 288 286 285 284 284 284 282 282 280 278 277 281 285 285 283 285 289 293 299 306 313 316 313 307 305 306 309 314 319 326 330 332
264 265 266 268 269 270 272 273 273 274 276 278 279 279 280 281 282 282 283 284 286 288 289 290 291 291 292 294 295 296 297 297 298 299 301 304 306 307 306 305 309 313 315 313 309 303 296 291 287 283 284 287 287 286 284 283 283 283 282 282 281 277 271 272 276 282 285 283 283 287 289 292 299 304 310 310 305 303 305 306 310 314 319 322 324
263 264 265 267 268 270 272 272 272 274 276 277 276 277 279 280 281 281 282 285 287 289 289 289 290 290 292 293 294 295 296 297 298 298 300 303 304 305 304 306 310 315 317 315 309 302 296 290 286 284 282 284 286 286 284 281 280 280 280 279 277 273 268 269 273 278 286 287 285 287 287 288 292 296 300 304 302 300 302 304 308 310 313 316 318
262 264 266 267 269 270 271 271 272 274 275 275 275 276 277 278 279 280 281 284 287 288 287 287 288 289 291 292 293 294 295 296 297 297 299 301 302 302 302 305 310 316 318 315 308 301 297 291 286 284 282 282 283 285 286 283 277 275 275 275 274 271 269 269 267 271 281 287 286 287 286 285 288 290 293 298 297 296 299 304 309 312 314 317 317
262 264 267 269 270 270 270 270 271 272 272 273 274 275 277 278 279 281 282 283 285 286 286 286 287 288 289 290 292 293 294 294 295 296 297 299 300 300 301 304 310 316 317 315 309 301 297 293 287 284 282 281 281 283 287 288 283 275 271 270 271 272 271 268 263 264 273 281 283 284 283 282 285 288 290 292 293 291 296 305 311 315 319 322 320
263 265 267 269 270 269 269 269 269 271 271 271 273 275 278 280 283 284 283 283 284 285 286 287 288 288 288 289 290 291 292 293 294 295 296 297 298 299 300 303 309 315 316 312 309 303 298 296 291 287 285 284 283 284 286 289 289 284 276 270 268 268 269 267 263 261 268 276 279 278 279 279 282 284 286 288 288 286 291 300 307 314 320 323 321
263 265 266 267 268 268 268 268 270 271 271 271 273 275 279 281 283 285 284 284 286 287 288 288 288 287 288 288 290 291 292 292 293 294 295 295 297 298 299 302 306 313 316 311 307 305 303 300 295 291 288 287 287 287 288 290 292 290 283 275 268 264 264 265 264 261 264 272 275 274 274 276 277 279 281 284 282 281 286 294 302 310 316 319 320
263 264 265 266 266 267 267 268 269 271 271 272 273 275 278 279 280 282 282 284 287 289 287 287 287 287 286 287 289 291 292 292 292 293 294 295 296 297 299 301 304 308 313 313 308 307 308 305 299 294 290 288 287 288 288 290 292 291 286 278 269 264 262 263 264 264 263 266 271 272 271 271 273 277 280 280 278 276 283 290 297 305 310 313 316
263 264 265 265 266 267 268 268 269 271 272 273 275 276 278 278 278 278 279 282 286 287 285 286 286 286 285 286 288 291 292 292 292 291 292 293 294 296 297 299 300 304 310 314 311 308 309 307 302 298 295 292 289 288 287 288 289 290 287 280 271 264 262 264 267 269 268 268 270 271 270 267 267 274 277 277 275 274 279 286 292 300 304 306 309
262 263 265 266 267 268 268 269 270 271 272 273 275 277 278 277 277 277 278 281 283 282 281 283 285 285 285 284 287 291 291 290 290 291 291 292 293 295 296 296 297 301 309 314 310 308 309 307 305 303 302 300 296 291 289 288 288 288 288 284 276 267 261 260 265 269 270 271 272 271 270 266 263 269 272 272 273 273 276 280 286 294 298 299 300
261 263 265 267 267 268 268 269 269 270 271 273 275 276 277 276 277 278 278 280 281 278 278 279 281 283 283 282 285 289 289 288 289 290 292 293 294 295 295 294 296 301 308 310 305 303 304 304 307 309 307 305 300 295 290 289 289 288 288 286 282 274 263 257 258 262 265 267 270 272 271 268 266 268 268 268 269 271 274 277 281 288 292 292 291
261 263 264 265 267 268 269 268 268 270 272 273 274 275 276 276 276 277 277 277 279 278 278 279 280 281 281 281 283 285 287 288 289 290 291 293 293 294 293 293 296 301 304 305 302 299 299 301 305 307 307 305 302 297 292 290 288 288 289 288 285 279 269 260 256 258 260 261 264 268 270 270 270 269 267 266 265 267 271 274 276 281 286 288 288
262 263 264 265 266 266 267 267 269 271 273 273 273 274 275 276 276 276 275 276 277 279 279 279 279 279 280 281 282 284 285 287 288 289 290 291 292 292 292 293 296 298 300 301 299 297 298 299 299 299 301 301 299 296 294 292 290 288 289 289 288 283 275 266 260 258 260 261 263 265 267 268 269 268 266 266 264 263 266 271 272 274 280 285 287
261 263 263 263 263 263 264 267 269 271 272 273 274 274 274 276 276 276 276 276 277 277 278 277 277 277 277 278 280 282 284 285 286 288 289 290 291 291 292 292 293 294 295 296 295 294 294 294 294 294 293 293 294 293 292 292 291 290 288 288 288 285 277 270 266 262 261 262 262 262 263 263 263 264 264 265 265 263 263 266 268 270 274 280 285
261 262 262 261 262 264 265 267 269 270 271 272 274 274 275 276 277 278 278 277 277 277 276 276 275 275 275 276 278 280 282 284 285 286 287 289 290 290 290 290 290 291 291 291 290 290 290 288 290 293 290 287 287 286 286 288 288 287 286 286 287 285 278 272 270 267 264 263 261 259 260 260 259 262 265 266 265 264 263 263 264 265 268 274 280
262 262 261 261 264 265 266 268 269 270 271 272 273 273 275 276 277 278 278 278 278 278 278 277 276 276 276 276 276 278 280 282 284 286 287 288 289 289 288 287 287 287 287 287 286 287 287 285 287 292 291 286 283 280 281 285 286 284 282 282 284 284 279 273 269 267 266 265 263 260 258 259 260 260 263 265 264 264 262 260 261 262 265 269 274
261 261 262 263 264 266 267 269 270 271 272 272 273 273 274 275 276 276 277 278 278 279 279 279 279 279 278 278 278 278 279 281 283 285 286 287 287 286 286 285 284 284 284 284 284 285 285 283 285 289 290 288 285 281 279 282 285 284 281 279 279 280 280 276 270 266 266 266 265 261 256 255 258 259 260 260 261 262 261 261 261 262 263 266 268
259 260 261 262 264 266 268 269 270 271 271 272 272 273 274 274 274 275 276 277 278 279 280 280 281 281 281 281 282 282 282 283 284 285 285 285 285 284 283 283 282 282 282 282 281 281 282 282 284 286 287 287 286 284 282 282 284 284 283 280 275 274 276 276 272 268 266 266 266 263 258 253 253 257 259 259 259 259 260 260 260 261 261 263 264
260 261 262 263 264 266 267 268 269 270 271 271 272 273 273 274 274 275 276 277 279 280 281 282 283 283 283 283 284 284 285 285 285 285 285 284 284 283 282 281 280 279 279 280 279 279 279 280 282 284 285 285 285 285 285 285 285 285 285 282 277 272 272 273 272 268 264 263 263 263 262 259 254 254 257 259 260 260 260 259 258 258 259 261 261
261 262 263 264 264 265 266 267 269 270 270 271 272 273 273 274 275 277 278 280 281 282 284 285 286 286 286 285 285 285 285 286 285 285 285 285 284 283 282 280 279 278 277 277 277 277 278 279 281 282 283 284 285 285 285 285 286 286 286 283 278 272 269 269 270 268 263 259 259 259 260 260 259 256 256 256 257 257 257 258 257 256 258 261 259
262 263 263 264 265 265 266 267 268 269 270 271 272 273 274 275 276 277 279 281 282 284 285 287 288 288 288 288 287 287 287 287 286 286 286 285 285 284 282 281 279 277 276 276 276 276 277 279 280 281 283 284 284 285 285 284 285 285 286 285 281 276 270 267 266 266 263 258 256 256 257 258 258 258 257 257 257 256 255 257 257 256 258 261 260
261 263 264 265 265 266 267 268 269 269 270 272 273 274 275 276 277 278 279 280 281 283 284 286 287 288 289 289 290 290 289 288 287 287 287 286 285 284 283 281 279 277 275 275 274 275 276 277 279 280 282 283 284 284 284 284 284 284 284 284 284 281 276 271 266 263 262 259 255 254 253 254 255 256 257 257 257 259 259 259 257 257 259 261 261
261 262 263 264 266 266 267 268 269 270 271 272 273 274 275 276 276 277 277 279 281 283 284 286 287 287 287 288 289 290 290 290 289 288 288 287 285 284 283 281 278 276 275 274 274 274 275 276 277 278 280 281 282 283 283 283 284 284 283 283 284 283 280 277 272 266 261 258 255 253 252 251 251 253 255 255 255 258 261 260 256 256 260 261 260
Height
10883 10882 10882 10882 10881 10881 10881 10880 10879 10879 10879 10878 10877 10876 10875 10874 10873 10872 10871 10870 10869 10868 10866 10864 10862 10859 10856 10854 10852 10850 10848 10845 10843 10842 10839 10837 10835 10833 10831 10829 10827 10825 10822 10820 10818 10816 10814 10812 10810 10809 10807 10806 10805 10804 10803 10802 10802 10801 10801 10801 10801 10801 10800 10800 10799 10798 10797 10795 10794 10792 10791 10790 10788 10787 10786 10784 10783 10781 10780 10779 10778 10777 10776 10775 10774
10880 10880 10880 10879 10879 10879 10878 10877 10876 10877 10876 10875 10874 10873 10872 10871 10870 10870 10869 10868 10867 10866 10864 10862 10859 10857 10854 10852 10850 10848 10846 10844 10841 10840 10838 10836 10834 10832 10829 10827 10825 10823 10821 10818 10816 10814 10812 10810 10808 10806 10805 10804 10803 10802 10801 10800 10800 10800 10800 10800 10800 10799 10799 10798 10797 10797 10795 10794 10793 10791 10790 10788 10787 10786 10784 10783 10781 10780 10778 10777 10776 10775 10774 10773 10772
10878 10878 10878 10877 10877 10876 10875 10874 10874 10874 10873 10873 10872 10871 10869 10868 10868 10867 10866 10865 10864 10863 10861 10859 10857 10855 10852 10850 10848 10846 10844 10842 10840 10839 10837 10835 10832 10830 10828 10826 10824 10822 10819 10817 10815 10812 10810 10808 10805 10804 10803 10802 10801 10800 10800 10799 10799 10799 10799 10799 10798 10798 10798 10797 10796 10795 10794 10793 10792 10790 10789 10787 10786 10784 10783 10781 10779 10778 10776 10775 10774 10773 10772 10771 10770
10875 10875 10875 10875 10875 10874 10873 10872 10871 10871 10871 10870 10869 10868 10866 10865 10865 10864 10863 10862 10861 10860 10858 10857 10855 10853 10850 10848 10846 10844 10842 10841 10839 10837 10835 10832 10830 10828 10826 10824 10822 10820 10817 10815 10813 10810 10808 10806 10804 10802 10801 10800 10800 10799 10798 10798 10798 10798 10798 10798 10797 10797 10796 10796 10795 10794 10793 10792 10790 10789 10787 10786 10784 10783 10781 10779 10778 10776 10775 10773 10772 10771 10770 10769 10768
10872 10873 10873 10872 10872 10871 10870 10869 10869 10869 10868 10868 10866 10865 10863 10862 10862 10861 10860 10859 10858 10857 10855 10854 10852 10850 10848 10846 10844 10842 10840 10839 10837 10834 10832 10830 10828 10826 10824 10822 10820 10818 10815 10813 10811 10809 10806 10804 10802 10800 10799 10799 10798 10797 10797 10797 10797 10797 10797 10796 10796 10796 10795 10794 10793 10792 10791 10790 10789 10788 10786 10784 10783 10781 10779 10778 10776 10774 10773 10772 10770 10769 10768 10767 10766
10869 10869 10869 10869 10869 10869 10868 10867 10866 10866 10865 10865 10863 10861 10860 10860 10859 10858 10857 10856 10855 10854 10852 10851 10849 10848 10846 10844 10842 10840 10838 10837 10835 10832 10829 10827 10826 10824 10822 10820 10818 10816 10814 10811 10809 10807 10804 10802 10800 10799 10798 10797 10797 10796 10796 10796 10796 10796 10796 10795 10795 10794 10794 10793 10792 10791 10790 10789 10788 10786 10785 10783 10781 10779 10778 10776 10774 10773 10771 10770 10769 10768 10767 10765 10764
10865 10866 10866 10866 10866 10866 10866 10865 10864 10863 10862 10861 10860 10858 10858 10857 10856 10855 10854 10853 10852 10850 10849 10848 10846 10845 10843 10841 10840 10838 10836 10834 10832 10830 10828 10825 10824 10822 10819 10817 10816 10814 10812 10810 10807 10805 10802 10800 10799 10798 10797 10796 10796 10795 10795 10795 10795 10794 10794 10794 10794 10793 10792 10792 10791 10790 10789 10788 10787 10785 10784 10782 10780 10778 10776 10775 10773 10771 10770 10768 10767 10766 10765 10764 10762
10863 10863 10863 10863 10863 10863 10863 10862 10861 10860 10859 10858 10857 10856 10855 10854 10853 10852 10851 10850 10849 10847 10846 10845 10843 10842 10841 10839 10837 10836 10833 10832 10830 10828 10825 10823 10821 10819 10817 10815 10814 10812 10810 10808 10806 10803 10801 10799 10798 10797 10796 10795 10794 10794 10794 10794 10794 10793 10793 10793 10792 10792 10791 10790 10790 10789 10788 10787 10785 10784 10782 10780 10778 10777 10775 10773 10771 10770 10768 10767 10765 10764 10763 10762 10761
10860 10860 10860 10860 10861 10861 10860 10859 10858 10857 10856 10855 10854 10853 10852 10851 10850 10849 10848 10847 10846 10844 10843 10842 10840 10839 10838 10837 10835 10833 10831 10829 10827 10825 10823 10821 10819 10816 10814 10813 10811 10810 10808 10806 10804 10802 10800 10798 10797 10796 10795 10794 10793 10793 10792 10792 10792 10792 10792 10791 10791 10791 10790 10789 10788 10787 10786 10785 10784 10783 10781 10779 10777 10775 10773 10771 10770 10768 10766 10765 10763 10762 10761 10760 10759
10857 10857 10858 10858 10858 10857 10857 10856 10855 10854 10852 10852 10851 10850 10849 10848 10847 10847 10846 10844 10843 10842 10840 10839 10837 10836 10835 10834 10832 10830 10828 10826 10824 10823 10820 10818 10816 10814 10812 10811 10809 10808 10806 10805 10803 10801 10799 10797 10796 10794 10793 10793 10792 10791 10791 10791 10791 10791 10791 10790 10790 10789 10788 10788 10787 10786 10785 10784 10783 10781 10780 10778 10776 10774 10772 10770 10768 10766 10764 10763 10762 10761 10760 10758 10757
10854 10854 10855 10855 10854 10854 10854 10853 10852 10850 10849 10848 10847 10847 10846 10846 10845 10844 10843 10841 10840 10839 10837 10835 10834 10833 10832 10831 10829 10827 10825 10824 10822 10820 10818 10816 10814 10812 10810 10809 10807 10806 10805 10803 10801 10800 10798 10796 10795 10794 10792 10791 10790 10790 10790 10789 10789 10789 10789 10789 10788 10788 10787 10786 10785 10784 10783 10782 10781 10780 10778 10776 10774 10772 10770 10768 10766 10764 10763 10761 10760 10759 10758 10757 10756
10851 10852 10852 10851 10851 10851 10850 10849 10848 10847 10846 10845 10845 10844 10844 10843 10842 10842 10840 10839 10838 10836 10834 10833 10831 10830 10829 10828 10826 10824 10823 10821 10820 10818 10816 10814 10812 10810 10809 10807 10805 10804 10803 10801 10800 10798 10797 10796 10794 10793 10791 10790 10789 10789 10788 10788 10788 10788 10787 10787 10787 10786 10785 10784 10783 10782 10781 10780 10779 10778 10776 10775 10772 10770 10768 10766 10764 10763 10761 10760 10758 10757 10756 10755 10754
10848 10848 10848 10848 10848 10847 10847 10846 10845 10844 10843 10843 10842 10841 10841 10841 10840 10839 10838 10836 10835 10833 10832 10830 10828 10827 10826 10825 10823 10822 10820 10819 10817 10815 10813 10812 10810 10809 10807 10806 10804 10802 10801 10800 10798 10797 10796 10794 10793 10792 10790 10789 10788 10787 10787 10787 10786 10786 10786 10785 10785 10784 10783 10782 10781 10780 10779 10778 10777 10776 10774 10773 10771 10769 10767 10765 10763 10761 10759 10758 10757 10756 10755 10754 10753
10845 10845 10844 10844 10844 10844 10843 10842 10841 10841 10840 10840 10839 10838 10838 10838 10838 10837 10835 10833 10832 10831 10829 10827 10825 10824 10823 10822 10821 10819 10818 10816 10815 10813 10812 10810 10808 10807 10806 10804 10802 10800 10798 10797 10796 10795 10793 10793 10791 10790 10789 10788 10787 10786 10786 10785 10785 10785 10784 10784 10783 10782 10781 10780 10779 10778 10777 10776 10775 10774 10772 10771 10769 10767 10765 10763 10761 10759 10758 10756 10755 10754 10753 10753 10752
10841 10841 10841 10841 10841 10840 10839 10839 10838 10838 10837 10837 10836 10835 10835 10835 10835 10834 10832 10831 10829 10828 10826 10824 10823 10821 10820 10819 10818 10817 10816 10814 10812 10811 10810 10808 10806 10805 10804 10802 10800 10798 10796 10795 10794 10793 10791 10790 10790 10788 10787 10787 10786 10785 10784 10784 10783 10783 10783 10782 10781 10780 10779 10778 10777 10776 10775 10774 10773 10772 10770 10768 10767 10765 10763 10762 10760 10758 10756 10755 10754 10753 10752 10752 10751
10838 10838 10838 10838 10837 10836 10836 10836 10835 10835 10834 10834 10833 10832 10832 10832 10832 10831 10829 10828 10826 10825 10823 10822 10820 10819 10817 10816 10815 10814 10813 10812 10810 10809 10808 10806 10804 10803 10801 10799 10798 10796 10794 10793 10792 10790 10789 10788 10787 10787 10786 10785 10784 10783 10782 10782 10781 10781 10781 10781 10779 10778 10777 10776 10775 10774 10773 10772 10771 10769 10768 10766 10765 10763 10762 10760 10758 10756 10754 10753 10752 10752 10751 10750 10749
10835 10835 10834 10834 10833 10833 10833 10832 10832 10832 10832 10831 10830 10829 10829 10829 10829 10828 10826 10825 10824 10822 10821 10819 10818 10816 10815 10813 10812 10811 10810 10809 10808 10807 10805 10803 10802 10800 10799 10797 10795 10794 10792 10790 10789 10788 10787 10786 10785 10785 10784 10783 10782 10781 10781 10780 10779 10779 10779 10779 10777 10776 10775 10774 10773 10772 10771 10770 10769 10767 10766 10764 10763 10761 10760 10758 10756 10754 10753 10752 10751 10750 10750 10749 10748
10831 10830 10830 10829 10829 10829 10829 10829 10830 10829 10829 10828 10827 10826 10826 10825 10825 10824 10823 10822 10821 10820 10818 10817 10815 10814 10812 10811 10809 10808 10807 10807 10806 10804 10803 10801 10799 10798 10796 10794 10793 10791 10789 10788 10786 10785 10784 10783 10783 10782 10782 10781 10780 10779 10779 10778 10777 10777 10777 10776 10775 10774 10773 10772 10771 10771 10770 10768 10767 10765 10763 10762 10760 10759 10758 10756 10754 10752 10751 10750 10749 10749 10748 10747 10746
10826 10826 10825 10825 10825 10826 10826 10826 10827 10826 10826 10824 10824 10823 10822 10821 10821 10821 10820 10819 10818 10817 10815 10814 10813 10811 10810 10808 10806 10805 10804 10803 10803 10802 10800 10798 10796 10795 10793 10792 10790 10788 10787 10785 10784 10782 10781 10780 10780 10780 10779 10778 10778 10777 10777 10776 10775 10775 10774 10774 10773 10772 10772 10770 10770 10769 10767 10766 10765 10763 10761 10760 10758 10757 10756 10754 10752 10751 10749 10748 10748 10747 10747 10746 10744
10822 10822 10821 10821 10822 10823 10823 10823 10823 10823 10822 10821 10820 10819 10818 10818 10817 10817 10817 10816 10815 10814 10812 10811 10809 10808 10807 10805 10803 10802 10801 10800 10800 10799 10798 10796 10794 10792 10790 10789 10787 10786 10784 10782 10781 10779 10778 10777 10777 10777 10776 10776 10775 10775 10775 10775 10774 10773 10772 10772 10771 10770 10770 10769 10768 10767 10765 10764 10762 10760 10759 10757 10756 10755 10754 10752 10750 10749 10748 10747 10746 10746 10745 10744 10743
10818 10817 10817 10818 10819 10820 10820 10820 10820 10820 10818 10817 10816 10815 10815 10815 10814 10814 10813 10813 10812 10810 10809 10807 10806 10805 10804 10802 10801 10799 10798 10797 10796 10796 10795 10793 10791 10789 10788 10786 10785 10783 10781 10779 10777 10776 10775 10774 10774 10774 10773 10773 10772 10772 10773 10773 10772 10771 10770 10770 10770 10769 10768 10767 10766 10764 10763 10762 10760 10758 10757 10756 10754 10753 10752 10750 10749 10747 10746 10745 10745 10744 10743 10742 10741
10814 10814 10814 10815 10815 10816 10817 10817 10817 10816 10814 10813 10812 10812 10812 10812 10811 10810 10810 10809 10808 10807 10805 10804 10803 10802 10801 10800 10799 10797 10795 10794 10793 10792 10791 10790 10788 10786 10785 10783 10782 10780 10778 10776 10775 10774 10773 10772 10771 10770 10770 10770 10770 10770 10770 10770 10770 10769 10768 10768 10767 10767 10766 10765 10764 10762 10761 10760 10758 10757 10755 10754 10753 10751 10750 10749 10747 10746 10745 10744 10743 10743 10741 10740 10739
10810 10810 10811 10811 10811 10812 10813 10813 10813 10812 10811 10810 10809 10809 10809 10808 10807 10807 10807 10806 10805 10804 10802 10801 10800 10800 10799 10798 10796 10795 10793 10791 10790 10789 10788 10786 10785 10783 10782 10780 10779 10778 10776 10774 10772 10771 10770 10769 10768 10767 10767 10767 10767 10767 10766 10767 10767 10767 10766 10765 10765 10765 10764 10763 10761 10760 10759 10758 10757 10755 10754 10752 10751 10750 10749 10747 10746 10744 10743 10743 10742 10741 10740 10739 10738
10806 10807 10807 10807 10808 10808 10809 10810 10809 10808 10807 10807 10807 10806 10805 10805 10804 10804 10803 10803 10802 10801 10799 10798 10798 10797 10796 10795 10794 10792 10790 10788 10787 10785 10784 10783 10781 10780 10779 10778 10776 10775 10773 10772 10770 10769 10768 10767 10766 10765 10764 10764 10764 10764 10763 10763 10764 10765 10764 10762 10762 10762 10761 10760 10759 10757 10757 10756 10755 10754 10752 10751 10750 10748 10747 10746 10744 10743 10742 10741 10741 10740 10739 10738 10736
10803 10803 10804 10804 10804 10805 10806 10806 10806 10804 10804 10804 10803 10803 10802 10801 10801 10801 10800 10800 10799 10798 10797 10796 10795 10794 10793 10792 10791 10789 10787 10785 10784 10782 10780 10779 10778 10777 10776 10775 10773 10772 10771 10769 10768 10767 10766 10765 10763 10762 10762 10761 10761 10761 10761 10760 10760 10762 10762 10760 10759 10759 10758 10758 10756 10755 10754 10754 10753 10752 10751 10749 10748 10747 10746 10744 10743 10742 10741 10740 10739 10739 10738 10736 10735
10800 10800 10800 10800 10801 10801 10802 10803 10802 10801 10801 10800 10800 10799 10798 10798 10797 10797 10797 10797 10796 10795 10794 10793 10792 10791 10790 10789 10788 10786 10784 10782 10780 10779 10777 10776 10774 10773 10773 10772 10770 10769 10768 10767 10766 10765 10764 10762 10761 10760 10759 10759 10759 10758 10757 10757 10757 10758 10759 10758 10757 10756 10755 10755 10753 10752 10751 10751 10751 10750 10749 10748 10746 10745 10744 10743 10742 10741 10740 10739 10738 10737 10736 10735 10734
10797 10797 10797 10797 10797 10798 10799 10800 10799 10798 10797 10797 10796 10795 10795 10794 10794 10794 10794 10793 10793 10792 10791 10790 10789 10788 10787 10786 10784 10783 10781 10779 10777 10776 10774 10773 10772 10771 10770 10769 10768 10766 10765 10764 10763 10763 10761 10760 10759 10758 10757 10756 10756 10755 10754 10754 10754 10754 10755 10755 10755 10754 10753 10752 10750 10749 10748 10748 10748 10747 10747 10746 10744 10743 10742 10741 10740 10739 10738 10737 10737 10736 10735 10734 10733
10794 10794 10794 10793 10793 10794 10796 10796 10795 10794 10793 10793 10792 10792 10792 10792 10791 10791 10791 10790 10789 10789 10788 10786 10785 10785 10783 10782 10781 10780 10778 10777 10775 10773 10771 10770 10769 10769 10768 10767 10765 10764 10763 10762 10761 10760 10759 10758 10757 10756 10754 10753 10752 10751 10751 10751 10750 10750 10750 10752 10752 10752 10751 10750 10748 10746 10745 10745 10745 10745 10744 10743 10742 10741 10740 10740 10739 10738 10737 10736 10735 10735 10734 10733 10732
10790 10790 10790 10790 10790 10791 10792 10793 10792 10791 10790 10789 10789 10789 10789 10788 10788 10788 10787 10787 10786 10786 10785 10783 10782 10781 10780 10779 10777 10776 10775 10774 10772 10770 10769 10768 10767 10766 10765 10764 10763 10762 10761 10760 10758 10757 10756 10755 10754 10753 10752 10750 10749 10748 10748 10747 10747 10747 10746 10747 10749 10749 10748 10747 10746 10743 10742 10743 10743 10742 10742 10741 10740 10739 10738 10738 10737 10736 10735 10734 10734 10733 10733 10732 10731
10786 10786 10786 10786 10786 10787 10788 10789 10788 10787 10786 10785 10785 10785 10785 10785 10785 10785 10784 10783 10782 10782 10782 10780 10778 10777 10776 10775 10774 10773 10772 10770 10769 10767 10766 10765 10764 10763 10763 10761 10760 10759 10757 10756 10755 10754 10753 10751 10750 10750 10749 10748 10746 10745 10744 10744 10743 10743 10742 10742 10744 10745 10745 10744 10743 10741 10740 10740 10740 10740 10739 10738 10738 10737 10736 10736 10735 10735 10734 10733 10732 10732 10731 10730 10729
10782 10782 10782 10782 10782 10783 10784 10784 10783 10782 10782 10781 10782 10782 10782 10782 10782 10781 10781 10780 10779 10778 10777 10776 10775 10773 10772 10771 10770 10769 10768 10767 10765 10764 10763 10762 10761 10760 10759 10758 10757 10755 10753 10751 10750 10749 10748 10747 10746 10745 10745 10744 10743 10742 10741 10740 10739 10739 10738 10738 10739 10741 10741 10741 10740 10739 10738 10737 10737 10737 10736 10735 10735 10735 10734 10734 10733 10733 10732 10731 10730 10730 10729 10729 10728
10778 10778 10778 10779 10779 10779 10779 10779 10779 10779 10778 10778 10778 10778 10778 10778 10778 10778 10777 10776 10775 10774 10773 10772 10771 10770 10768 10767 10766 10765 10764 10763 10762 10761 10760 10760 10759 10758 10757 10755 10754 10752 10750 10747 10746 10745 10744 10742 10741 10741 10741 10740 10739 10738 10737 10736 10736 10735 10735 10735 10735 10736 10737 10738 10738 10737 10736 10734 10734 10734 10733 10733 10732 10732 10732 10732 10731 10731 10730 10729 10729 10728 10728 10727 10726
10774 10775 10775 10775 10775 10775 10774 10774 10774 10775 10775 10775 10775 10775 10775 10775 10775 10775 10774 10773 10772 10771 10769 10768 10767 10766 10764 10763 10762 10761 10760 10759 10758 10757 10757 10757 10756 10755 10754 10753 10751 10749 10747 10744 10742 10741 10740 10738 10737 10737 10737 10736 10735 10735 10734 10733 10732 10732 10731 10732 10732 10732 10732 10734 10735 10734 10733 10731 10730 10730 10730 10730 10730 10730 10730 10730 10729 10728 10728 10727 10727 10726 10726 10725 10724
10771 10772 10772 10771 10770 10770 10770 10769 10770 10771 10772 10772 10772 10772 10771 10771 10771 10771 10770 10769 10768 10767 10766 10764 10763 10762 10761 10759 10758 10757 10756 10756 10755 10754 10754 10753 10753 10752 10751 10750 10748 10746 10744 10741 10739 10737 10736 10735 10735 10734 10733 10733 10732 10731 10730 10730 10729 10728 10728 10728 10729 10728 10728 10728 10730 10731 10730 10728 10726 10726 10726 10726 10727 10727 10727 10727 10727 10726 10725 10725 10724 10724 10723 10723 10722
10767 10768 10767 10766 10765 10765 10765 10765 10765 10766 10767 10768 10769 10769 10768 10767 10767 10767 10766 10766 10764 10763 10762 10761 10759 10757 10756 10755 10754 10753 10753 10752 10752 10751 10750 10750 10749 10748 10747 10746 10745 10743 10740 10738 10737 10735 10734 10733 10732 10731 10730 10729 10728 10727 10727 10727 10726 10725 10725 10725 10725 10725 10725 10724 10725 10727 10727 10725 10723 10723 10723 10723 10723 10724 10724 10725 10725 10724 10723 10723 10722 10722 10721 10721 10720
10763 10763 10762 10761 10761 10761 10762 10761 10761 10761 10762 10763 10764 10765 10765 10764 10763 10763 10763 10762 10761 10759 10758 10757 10755 10753 10752 10751 10750 10749 10749 10748 10748 10748 10747 10746 10745 10744 10744 10743 10741 10739 10737 10736 10735 10733 10732 10730 10729 10728 10727 10726 10725 10724 10723 10723 10722 10722 10722 10722 10722 10722 10722 10721 10721 10722 10723 10722 10721 10720 10720 10721 10721 10721 10721 10722 10722 10721 10721 10720 10720 10719 10719 10719 10718
10759 10758 10757 10757 10757 10757 10758 10757 10756 10756 10757 10758 10759 10760 10761 10760 10760 10759 10759 10759 10757 10756 10754 10753 10751 10750 10749 10748 10747 10746 10745 10744 10744 10744 10743 10742 10742 10741 10740 10738 10736 10735 10734 10734 10733 10731 10729 10727 10726 10725 10723 10722 10721 10720 10719 10718 10718 10718 10718 10718 10718 10718 10719 10718 10717 10717 10718 10718 10718 10717 10717 10718 10718 10719 10719 10719 10719 10719 10718 10718 10718 10717 10717 10717 10716
10753 10753 10752 10752 10752 10753 10753 10752 10751 10751 10752 10753 10753 10755 10755 10755 10755 10755 10755 10754 10753 10752 10751 10749 10747 10746 10745 10744 10743 10742 10741 10741 10740 10740 10739 10738 10738 10737 10736 10733 10731 10731 10732 10732 10729 10727 10725 10724 10723 10722 10720 10719 10718 10717 10716 10715 10714 10714 10714 10714 10714 10714 10715 10715 10714 10714 10714 10714 10713 10713 10713 10714 10715 10716 10716 10716 10716 10716 10716 10716 10715 10715 10714 10714 10714
10748 10747 10747 10747 10748 10749 10749 10748 10747 10747 10747 10748 10749 10749 10750 10750 10750 10750 10750 10749 10749 10748 10747 10746 10744 10743 10741 10740 10739 10738 10737 10737 10736 10735 10735 10734 10734 10734 10731 10728 10727 10728 10729 10728 10726 10723 10722 10720 10720 10718 10717 10716 10715 10713 10712 10711 10711 10710 10710 10709 10710 10710 10711 10711 10711 10711 10711 10710 10710 10709 10710 10710 10711 10713 10713 10713 10713 10713 10713 10713 10713 10713 10712 10711 10711
10742 10742 10742 10742 10743 10744 10744 10744 10743 10743 10743 10744 10744 10744 10744 10744 10744 10745 10745 10744 10744 10743 10742 10741 10740 10739 10738 10736 10735 10734 10733 10733 10732 10731 10731 10730 10730 10729 10726 10724 10724 10725 10724 10723 10722 10720 10719 10718 10716 10715 10714 10713 10712 10710 10709 10708 10708 10707 10706 10706 10706 10706 10707 10707 10707 10707 10707 10707 10707 10706 10706 10706 10707 10708 10709 10709 10710 10710 10710 10711 10711 10710 10710 10709 10709
10737 10737 10737 10737 10738 10739 10739 10739 10739 10739 10739 10740 10740 10739 10739 10739 10739 10739 10739 10739 10739 10738 10737 10736 10736 10735 10733 10731 10730 10729 10729 10728 10727 10727 10726 10726 10726 10724 10722 10720 10720 10721 10719 10718 10718 10717 10716 10714 10713 10712 10711 10710 10709 10708 10706 10705 10704 10704 10704 10702 10702 10703 10703 10703 10703 10703 10704 10703 10703 10703 10703 10703 10703 10703 10704 10706 10706 10706 10707 10707 10708 10708 10707 10706 10706
10732 10732 10732 10732 10732 10733 10734 10734 10734 10734 10735 10735 10735 10734 10734 10733 10733 10733 10733 10733 10733 10733 10732 10731 10730 10730 10728 10727 10725 10724 10724 10723 10722 10722 10721 10721 10720 10719 10717 10716 10716 10716 10715 10714 10713 10712 10712 10711 10710 10709 10708 10707 10707 10706 10704 10702 10701 10701 10700 10700 10699 10699 10699 10698 10699 10700 10700 10699 10699 10699 10699 10700 10700 10698 10700 10702 10702 10702 10703 10704 10704 10705 10705 10704 10704
10727 10727 10726 10726 10726 10727 10728 10729 10730 10730 10730 10730 10730 10730 10729 10728 10727 10726 10726 10726 10727 10727 10726 10726 10725 10724 10723 10722 10721 10720 10719 10718 10717 10717 10716 10716 10715 10713 10712 10712 10711 10710 10710 10709 10708 10708 10708 10707 10706 10705 10704 10703 10703 10703 10702 10700 10699 10698 10697 10696 10696 10696 10695 10695 10695 10695 10694 10694 10694 10694 10695 10695 10696 10695 10696 10698 10698 10698 10699 10700 10701 10701 10702 10701 10701
10721 10721 10721 10721 10721 10721 10723 10724 10724 10725 10725 10725 10725 10725 10724 10723 10722 10720 10720 10719 10719 10719 10719 10719 10718 10717 10717 10716 10716 10716 10715 10713 10712 10711 10711 10710 10709 10708 10707 10706 10706 10705 10705 10704 10704 10703 10703 10702 10701 10700 10700 10699 10699 10699 10698 10697 10696 10695 10694 10693 10692 10691 10691 10692 10692 10690 10689 10690 10689 10690 10690 10691 10691 10692 10692 10693 10694 10694 10695 10695 10696 10697 10698 10698 10698
10714 10715 10715 10715 10715 10715 10716 10717 10718 10719 10719 10719 10719 10719 10719 10719 10718 10716 10715 10714 10713 10712 10711 10711 10710 10710 10709 10709 10709 10709 10709 10708 10707 10706 10705 10704 10703 10703 10702 10701 10700 10700 10699 10699 10699 10698 10698 10697 10697 10696 10696 10695 10694 10694 10694 10694 10692 10691 10691 10690 10688 10687 10686 10687 10688 10686 10686 10685 10684 10685 10685 10686 10686 10687 10688 10688 10689 10690 10691 10691 10692 10693 10694 10694 10694
10708 10708 10709 10710 10710 10710 10711 10711 10712 10712 10712 10712 10712 10712 10713 10713 10713 10712 10710 10709 10708 10707 10706 10705 10704 10702 10702 10701 10701 10701 10701 10701 10701 10700 10699 10698 10697 10697 10696 10695 10695 10694 10693 10693 10693 10692 10692 10692 10691 10691 10691 10691 10690 10689 10689 10689 10689 10687 10687 10686 10684 10683 10682 10682 10683 10682 10681 10680 10679 10679 10680 10681 10682 10682 10683 10683 10685 10686 10686 10686 10688 10689 10689 10690 10690
10702 10702 10703 10705 10706 10706 10706 10705 10706 10706 10706 10706 10706 10706 10706 10706 10705 10705 10704 10703 10702 10701 10700 10699 10698 10696 10695 10695 10695 10694 10693 10693 10693 10692 10692 10691 10691 10690 10690 10690 10689 10688 10687 10687 10686 10686 10686 10686 10686 10685 10685 10685 10686 10684 10683 10684 10684 10683 10682 10682 10680 10678 10678 10677 10677 10677 10676 10675 10675 10674 10674 10676 10677 10678 10678 10679 10680 10681 10681 10682 10683 10684 10685 10685 10686
10697 10698 10698 10700 10700 10700 10700 10699 10699 10699 10699 10698 10698 10698 10699 10699 10699 10698 10697 10696 10695 10694 10694 10693 10692 10690 10689 10689 10689 10688 10687 10686 10686 10685 10685 10684 10683 10683 10683 10683 10683 10682 10681 10681 10680 10679 10679 10680 10680 10679 10679 10679 10680 10679 10678 10678 10678 10678 10677 10677 10675 10674 10673 10672 10671 10671 10671 10670 10670 10670 10669 10669 10671 10672 10673 10675 10676 10676 10677 10677 10678 10680 10681 10681 10681
10692 10693 10693 10694 10694 10694 10694 10693 10693 10693 10692 10692 10691 10691 10692 10692 10692 10692 10692 10691 10690 10689 10688 10687 10686 10684 10683 10682 10682 10682 10682 10680 10679 10678 10678 10677 10676 10676 10676 10676 10675 10675 10674 10674 10673 10672 10672 10673 10673 10673 10672 10672 10673 10673 10672 10672 10673 10672 10671 10671 10670 10669 10668 10666 10665 10666 10666 10665 10665 10664 10664 10664 10665 10666 10668 10670 10671 10671 10672 10673 10674 10676 10676 10676 10677
10687 10688 10688 10687 10688 10688 10687 10687 10687 10686 10686 10685 10685 10685 10685 10686 10687 10687 10687 10687 10686 10685 10685 10684 10682 10680 10678 10676 10675 10675 10675 10674 10673 10672 10672 10671 10670 10669 10669 10669 10668 10668 10668 10667 10666 10666 10666 10666 10667 10666 10666 10666 10666 10666 10666 10666 10666 10666 10665 10665 10663 10662 10662 10660 10659 10660 10661 10660 10659 10658 10658 10660 10660 10661 10662 10664 10665 10666 10667 10669 10671 10671 10671 10671 10672
10682 10683 10683 10682 10682 10683 10682 10681 10681 10680 10680 10679 10679 10680 10680 10680 10681 10682 10682 10682 10682 10681 10681 10680 10678 10677 10675 10673 10671 10669 10668 10667 10667 10666 10665 10665 10664 10664 10663 10663 10662 10662 10661 10660 10660 10660 10660 10660 10660 10660 10660 10660 10659 10659 10659 10659 10659 10659 10659 10659 10657 10655 10655 10654 10653 10653 10654 10653 10653 10652 10653 10655 10656 10656 10657 10658 10660 10662 10662 10664 10666 10666 10666 10667 10667